When you browse on this site, cookies collect data to enhance your experience and personalize the content and advertising you see.
Visit our Privacy Policy to learn more. By continuing to use the site, you agree to this use of cookies and data.
  • In Czech Republic
  • List of Countries
  • For 7 days
  • Water Temperature
  • Satellite Maps
  • Weather Map
  • Weather Widgets
  • user-avatar
    Login

    Hourly Weather Buenos Aires

    Today, 15 December, Saturday

    Time Temperature Precipitation Wind Pressure Humidity
    00:00 +19°C° 0 mm 4 mps 760 mmHg 43%
    01:00 +18°C° 0 mm 3 mps 760 mmHg 43%
    02:00 +18°C° 0 mm 3 mps 761 mmHg 43%
    03:00 +17°C° 0 mm 3 mps 761 mmHg 44%
    04:00 +17°C° 0 mm 2 mps 761 mmHg 45%
    05:00 +17°C° 0 mm 2 mps 761 mmHg 46%
    06:00 +19°C° 0 mm 2 mps 762 mmHg 44%
    07:00 +21°C° 0 mm 2 mps 762 mmHg 41%
    08:00 +24°C° 0 mm 1 mps 762 mmHg 39%
    09:00 +26°C° 0 mm 1 mps 762 mmHg 35%
    10:00 +28°C° 0 mm 1 mps 762 mmHg 32%
    11:00 +30°C° 0 mm 1 mps 762 mmHg 28%
    12:00 +30°C° 0 mm 2 mps 762 mmHg 27%
    13:00 +30°C° 0 mm 2 mps 761 mmHg 27%
    14:00 +31°C° 0 mm 3 mps 761 mmHg 26%
    15:00 +30°C° 0 mm 2 mps 761 mmHg 28%
    16:00 +30°C° 0 mm 2 mps 760 mmHg 31%
    17:00 +30°C° 0 mm 2 mps 760 mmHg 33%
    18:00 +28°C° 0 mm 2 mps 760 mmHg 37%
    19:00 +26°C° 0 mm 2 mps 760 mmHg 42%
    20:00 +24°C° 0 mm 2 mps 760 mmHg 46%
    21:00 +23°C° 0 mm 2 mps 760 mmHg 49%
    22:00 +22°C° 0 mm 3 mps 760 mmHg 51%
    23:00 +22°C° 0 mm 3 mps 761 mmHg 53%

    Tomorrow, 16 December, Sunday

    Time Temperature Precipitation Wind Pressure Humidity
    00:00 +21°C° 0 mm 3 mps 760 mmHg 55%
    01:00 +21°C° 0 mm 3 mps 760 mmHg 58%
    02:00 +21°C° 0 mm 4 mps 760 mmHg 60%
    03:00 +20°C° 0 mm 4 mps 760 mmHg 62%
    04:00 +20°C° 0 mm 4 mps 760 mmHg 65%
    05:00 +20°C° 0 mm 4 mps 760 mmHg 67%
    06:00 +21°C° 0 mm 4 mps 760 mmHg 62%
    07:00 +23°C° 0 mm 4 mps 760 mmHg 58%
    08:00 +26°C° 0 mm 4 mps 760 mmHg 53%
    09:00 +27°C° 0 mm 4 mps 759 mmHg 47%
    10:00 +29°C° 0 mm 4 mps 759 mmHg 40%
    11:00 +31°C° 0 mm 3 mps 758 mmHg 34%
    12:00 +33°C° 0 mm 3 mps 758 mmHg 34%
    13:00 +34°C° 0 mm 3 mps 757 mmHg 33%
    14:00 +35°C° 0 mm 3 mps 756 mmHg 32%
    15:00 +35°C° 0 mm 3 mps 756 mmHg 37%
    16:00 +34°C° 0 mm 3 mps 755 mmHg 41%
    17:00 +34°C° 0 mm 3 mps 755 mmHg 45%
    18:00 +31°C° 0 mm 3 mps 755 mmHg 53%
    19:00 +30°C° 0 mm 3 mps 755 mmHg 60%
    20:00 +28°C° 0 mm 3 mps 755 mmHg 68%
    21:00 +27°C° 0 mm 2 mps 755 mmHg 72%
    22:00 +27°C° 0 mm 2 mps 755 mmHg 76%
    23:00 +26°C° 0 mm 1 mps 755 mmHg 80%

    Day after tomorrow, 17 December, Monday

    Time Temperature Precipitation Wind Pressure Humidity
    00:00 +26°C° 0.1 mm 1 mps 755 mmHg 82%
    01:00 +26°C° 0.1 mm 1 mps 754 mmHg 84%
    02:00 +25°C° 0.1 mm 1 mps 754 mmHg 86%
    03:00 +25°C° 0.1 mm 2 mps 755 mmHg 85%
    04:00 +24°C° 0.1 mm 3 mps 756 mmHg 84%
    05:00 +22°C° 0.1 mm 4 mps 756 mmHg 82%
    06:00 +22°C° 0.1 mm 6 mps 757 mmHg 74%
    07:00 +22°C° 0.1 mm 8 mps 758 mmHg 66%
    08:00 +22°C° 0.1 mm 9 mps 758 mmHg 57%
    09:00 +23°C° 0 mm 9 mps 759 mmHg 54%
    10:00 +24°C° 0 mm 9 mps 759 mmHg 51%
    11:00 +26°C° 0 mm 9 mps 760 mmHg 47%
    12:00 +27°C° 0 mm 9 mps 760 mmHg 46%
    13:00 +27°C° 0 mm 9 mps 760 mmHg 44%
    14:00 +27°C° 0 mm 9 mps 760 mmHg 42%
    15:00 +26°C° 0 mm 9 mps 760 mmHg 43%
    16:00 +24°C° 0 mm 9 mps 761 mmHg 44%
    17:00 +23°C° 0 mm 9 mps 761 mmHg 45%
    18:00 +21°C° 0 mm 8 mps 762 mmHg 48%
    19:00 +20°C° 0 mm 8 mps 762 mmHg 51%
    20:00 +17°C° 0 mm 8 mps 762 mmHg 54%
    21:00 +16°C° 0 mm 7 mps 763 mmHg 57%
    22:00 +16°C° 0 mm 7 mps 763 mmHg 60%
    23:00 +15°C° 0 mm 6 mps 764 mmHg 63%

    18 December, Tuesday

    Time Temperature Precipitation Wind Pressure Humidity
    00:00 +15°C° 0 mm 6 mps 764 mmHg 65%
    01:00 +14°C° 0 mm 6 mps 763 mmHg 66%
    02:00 +14°C° 0 mm 6 mps 763 mmHg 68%
    03:00 +14°C° 0 mm 6 mps 763 mmHg 70%
    04:00 +14°C° 0 mm 5 mps 763 mmHg 72%
    05:00 +13°C° 0 mm 5 mps 763 mmHg 74%
    06:00 +15°C° 0 mm 5 mps 763 mmHg 71%
    07:00 +17°C° 0 mm 5 mps 764 mmHg 67%
    08:00 +20°C° 0 mm 5 mps 764 mmHg 63%
    09:00 +21°C° 0 mm 5 mps 763 mmHg 58%
    10:00 +22°C° 0 mm 5 mps 763 mmHg 52%
    11:00 +25°C° 0 mm 4 mps 763 mmHg 47%
    12:00 +26°C° 0 mm 5 mps 763 mmHg 45%
    13:00 +26°C° 0 mm 5 mps 762 mmHg 43%
    14:00 +27°C° 0 mm 5 mps 762 mmHg 41%
    15:00 +26°C° 0 mm 5 mps 762 mmHg 44%
    16:00 +26°C° 0 mm 5 mps 761 mmHg 46%
    17:00 +25°C° 0 mm 5 mps 761 mmHg 49%
    18:00 +22°C° 0 mm 5 mps 761 mmHg 56%
    19:00 +21°C° 0 mm 5 mps 761 mmHg 63%
    20:00 +19°C° 0 mm 5 mps 761 mmHg 70%
    21:00 +19°C° 0 mm 5 mps 761 mmHg 73%
    22:00 +19°C° 0 mm 5 mps 761 mmHg 77%
    23:00 +19°C° 0 mm 5 mps 761 mmHg 80%

    19 December, Wednesday

    Time Temperature Precipitation Wind Pressure Humidity
    00:00 +19°C° 0 mm 5 mps 760 mmHg 82%
    01:00 +19°C° 0 mm 4 mps 760 mmHg 84%
    02:00 +18°C° 0 mm 4 mps 759 mmHg 86%
    03:00 +18°C° 0 mm 4 mps 759 mmHg 87%
    04:00 +18°C° 0 mm 4 mps 759 mmHg 87%
    05:00 +18°C° 0 mm 4 mps 759 mmHg 88%
    06:00 +19°C° 0 mm 4 mps 759 mmHg 82%
    07:00 +21°C° 0 mm 4 mps 758 mmHg 75%
    08:00 +22°C° 0 mm 5 mps 758 mmHg 69%
    09:00 +25°C° 0 mm 4 mps 757 mmHg 62%
    10:00 +27°C° 0 mm 4 mps 757 mmHg 54%
    11:00 +29°C° 0 mm 4 mps 756 mmHg 47%
    12:00 +30°C° 0 mm 4 mps 755 mmHg 44%
    13:00 +32°C° 0 mm 4 mps 755 mmHg 41%
    14:00 +34°C° 0 mm 4 mps 754 mmHg 38%
    15:00 +33°C° 0 mm 4 mps 753 mmHg 39%
    16:00 +33°C° 0 mm 4 mps 753 mmHg 41%
    17:00 +33°C° 0 mm 4 mps 752 mmHg 43%
    18:00 +32°C° 0 mm 4 mps 752 mmHg 51%
    19:00 +29°C° 0 mm 5 mps 752 mmHg 59%
    20:00 +27°C° 0 mm 5 mps 752 mmHg 67%
    21:00 +27°C° 0 mm 5 mps 753 mmHg 71%
    22:00 +26°C° 0 mm 5 mps 753 mmHg 74%
    23:00 +26°C° 0 mm 6 mps 753 mmHg 78%

    20 December, Thursday

    Time Temperature Precipitation Wind Pressure Humidity
    00:00 +25°C° 1 mm 5 mps 754 mmHg 82%
    01:00 +23°C° 1 mm 5 mps 754 mmHg 85%
    02:00 +21°C° 1 mm 5 mps 755 mmHg 89%
    03:00 +20°C° 0.1 mm 5 mps 755 mmHg 86%
    04:00 +19°C° 0.1 mm 6 mps 756 mmHg 83%
    05:00 +17°C° 0.1 mm 6 mps 756 mmHg 80%
    06:00 +17°C° 0 mm 6 mps 757 mmHg 74%
    07:00 +19°C° 0 mm 6 mps 758 mmHg 68%
    08:00 +20°C° 0 mm 6 mps 758 mmHg 62%
    09:00 +22°C° 0 mm 6 mps 758 mmHg 56%
    10:00 +23°C° 0 mm 5 mps 758 mmHg 51%
    11:00 +26°C° 0 mm 5 mps 758 mmHg 45%
    12:00 +27°C° 0 mm 5 mps 758 mmHg 43%
    13:00 +27°C° 0 mm 5 mps 758 mmHg 42%
    14:00 +28°C° 0 mm 5 mps 758 mmHg 40%
    15:00 +28°C° 0 mm 5 mps 758 mmHg 42%
    16:00 +27°C° 0 mm 5 mps 758 mmHg 44%
    17:00 +27°C° 0 mm 5 mps 758 mmHg 46%
    18:00 +25°C° 0 mm 5 mps 758 mmHg 52%
    19:00 +22°C° 0 mm 5 mps 759 mmHg 59%
    20:00 +21°C° 0 mm 5 mps 759 mmHg 66%
    21:00 +20°C° 0 mm 4 mps 759 mmHg 70%
    22:00 +19°C° 0 mm 4 mps 759 mmHg 74%
    23:00 +18°C° 0 mm 4 mps 759 mmHg 78%
    Show more